Total_Precipitation_Accumulation
0.00 0.01 0.06 0.20 0.68 0.91 0.79 0.48 0.39 0.31 0.31 0.27 0.28 0.28 0.33 0.46 0.65 0.87 0.41 0.11 0.03 0.01 0.02 0.08 0.14 0.13 0.11 0.10 0.11 0.15 0.15 0.16 0.15 0.14 0.14 0.13 0.10 0.07 0.06 0.05 0.05 0.05 0.05 0.05 0.06 0.06 0.06 0.07 0.09
0.00 0.02 0.08 0.33 0.68 0.76 0.57 0.42 0.33 0.24 0.26 0.32 0.45 0.44 0.35 0.42 0.43 0.36 0.23 0.13 0.05 0.02 0.02 0.03 0.09 0.12 0.11 0.11 0.12 0.14 0.14 0.12 0.12 0.11 0.11 0.11 0.09 0.06 0.06 0.06 0.07 0.08 0.07 0.08 0.07 0.07 0.07 0.08 0.08
0.02 0.05 0.12 0.36 0.47 0.37 0.30 0.19 0.19 0.24 0.34 0.43 0.49 0.50 0.50 0.48 0.38 0.32 0.23 0.14 0.12 0.06 0.04 0.04 0.07 0.09 0.12 0.13 0.13 0.13 0.13 0.12 0.10 0.10 0.10 0.09 0.08 0.07 0.06 0.07 0.08 0.10 0.11 0.11 0.08 0.08 0.10 0.10 0.10
0.03 0.08 0.18 0.27 0.19 0.09 0.09 0.11 0.18 0.29 0.49 0.73 0.73 0.63 0.57 0.39 0.31 0.25 0.29 0.22 0.18 0.11 0.06 0.06 0.09 0.09 0.11 0.12 0.13 0.12 0.11 0.11 0.12 0.11 0.11 0.09 0.09 0.09 0.08 0.08 0.09 0.11 0.13 0.14 0.12 0.12 0.12 0.09 0.10
0.02 0.07 0.19 0.18 0.07 0.06 0.07 0.12 0.22 0.36 0.54 0.73 0.77 0.75 0.72 0.46 0.33 0.29 0.25 0.22 0.21 0.15 0.08 0.07 0.13 0.13 0.13 0.13 0.15 0.14 0.12 0.12 0.12 0.11 0.12 0.12 0.11 0.11 0.11 0.10 0.11 0.12 0.13 0.13 0.14 0.15 0.14 0.11 0.10
0.01 0.04 0.09 0.09 0.05 0.05 0.08 0.14 0.24 0.36 0.53 0.71 0.94 1.00 0.84 0.60 0.53 0.44 0.31 0.27 0.26 0.22 0.12 0.11 0.17 0.19 0.18 0.18 0.19 0.19 0.16 0.14 0.14 0.14 0.15 0.15 0.13 0.14 0.15 0.15 0.15 0.15 0.15 0.16 0.16 0.16 0.16 0.15 0.14
0.00 0.01 0.04 0.06 0.05 0.05 0.07 0.14 0.24 0.38 0.52 0.80 1.09 1.16 0.89 0.67 0.59 0.55 0.48 0.43 0.51 0.39 0.26 0.21 0.19 0.19 0.20 0.24 0.26 0.24 0.20 0.18 0.17 0.18 0.17 0.16 0.15 0.16 0.18 0.21 0.22 0.22 0.21 0.20 0.20 0.20 0.22 0.22 0.20
0.00 0.01 0.03 0.04 0.03 0.05 0.10 0.15 0.28 0.47 0.64 0.87 1.05 1.17 1.16 0.73 0.58 0.66 0.74 0.78 0.96 0.82 0.57 0.42 0.30 0.30 0.24 0.24 0.26 0.27 0.24 0.22 0.21 0.21 0.21 0.22 0.25 0.30 0.35 0.35 0.33 0.33 0.33 0.34 0.37 0.36 0.38 0.39 0.36
0.00 0.01 0.02 0.01 0.02 0.10 0.13 0.17 0.24 0.34 0.53 0.75 0.90 0.99 0.87 0.73 0.74 0.86 1.08 0.94 0.93 1.00 0.78 0.67 0.52 0.37 0.37 0.34 0.32 0.40 0.39 0.39 0.41 0.46 0.43 0.43 0.48 0.62 0.74 0.64 0.63 0.64 0.65 0.69 0.75 0.77 0.79 0.74 0.61
0.00 0.00 0.01 0.00 0.01 0.05 0.11 0.16 0.24 0.33 0.70 1.26 1.29 0.93 0.71 0.84 0.97 1.05 1.19 1.12 1.06 1.05 0.82 0.78 0.76 0.56 0.52 0.50 0.68 0.87 0.80 0.87 0.84 0.96 0.87 0.92 0.96 0.84 0.68 0.78 0.90 1.02 1.21 1.29 1.36 1.41 1.38 1.25 1.04
0.00 0.00 0.00 0.00 0.01 0.01 0.04 0.10 0.19 0.40 0.82 1.46 1.64 1.23 1.03 1.10 1.37 1.32 1.36 1.44 1.44 1.24 1.08 0.81 0.89 0.77 0.76 0.85 0.99 1.14 1.20 1.20 1.17 1.22 1.23 1.36 1.33 1.12 1.02 1.17 1.41 1.57 1.72 1.82 2.05 2.06 1.70 1.69 1.74
0.00 0.00 0.00 0.00 0.01 0.01 0.08 0.15 0.24 0.32 0.74 1.07 1.04 0.94 1.10 1.27 1.49 1.56 1.51 1.66 1.59 1.45 1.42 1.27 1.25 1.19 1.12 1.11 1.11 1.11 1.05 1.07 1.16 1.27 1.36 1.52 1.52 1.54 1.51 1.56 1.64 1.77 2.00 2.25 2.33 2.33 2.20 2.34 2.30
0.00 0.00 0.00 0.02 0.03 0.04 0.10 0.13 0.24 0.37 0.51 0.63 0.60 0.78 1.20 1.45 1.72 1.94 2.09 2.26 2.21 2.18 2.06 1.95 1.91 1.68 1.42 1.23 1.08 0.96 0.91 0.87 0.96 1.06 1.12 1.22 1.46 1.61 1.61 1.45 1.46 1.49 1.73 2.07 2.38 2.43 2.64 2.74 2.53
0.00 0.00 0.01 0.03 0.03 0.05 0.07 0.10 0.26 0.43 0.46 0.59 0.74 0.97 1.34 1.75 2.08 2.26 2.83 3.12 3.22 3.20 2.97 2.65 2.53 2.06 1.73 1.52 1.21 1.04 0.88 0.88 0.89 0.86 0.92 1.10 1.25 1.41 1.38 1.36 1.42 1.47 1.49 1.64 2.02 2.27 2.48 2.42 2.22
0.00 0.02 0.05 0.06 0.04 0.05 0.06 0.17 0.39 0.52 0.70 0.73 0.92 1.14 1.46 1.99 2.39 2.80 3.26 3.85 4.13 4.18 3.74 3.11 2.78 2.41 2.06 1.82 1.44 1.16 0.99 0.89 0.87 0.81 0.83 0.91 0.99 1.11 1.13 1.14 1.14 1.19 1.23 1.25 1.39 1.62 1.79 1.74 1.67
0.01 0.08 0.17 0.11 0.06 0.07 0.11 0.42 0.64 0.55 0.84 1.17 1.10 1.38 1.77 2.22 2.60 3.20 3.83 4.50 4.95 4.99 4.34 3.58 2.92 2.85 2.57 2.19 1.64 1.22 0.98 0.84 0.72 0.67 0.63 0.63 0.66 0.69 0.71 0.71 0.70 0.72 0.73 0.79 0.89 1.00 1.12 1.24 1.38
0.03 0.07 0.15 0.18 0.11 0.10 0.18 0.58 0.75 0.54 0.67 0.98 1.21 1.46 1.87 2.18 2.43 2.96 3.55 4.30 4.85 5.28 4.97 4.21 3.91 3.63 2.89 2.05 1.46 1.10 0.83 0.68 0.57 0.57 0.50 0.48 0.47 0.47 0.50 0.50 0.50 0.45 0.44 0.48 0.50 0.61 0.73 0.85 0.95
0.02 0.04 0.10 0.21 0.17 0.17 0.25 0.44 0.70 0.73 0.88 1.10 1.24 1.39 1.66 1.79 1.94 2.39 2.91 3.33 3.86 4.29 4.10 3.82 3.77 3.14 2.34 1.63 1.25 0.94 0.72 0.58 0.46 0.42 0.44 0.40 0.39 0.38 0.42 0.39 0.38 0.33 0.33 0.38 0.43 0.49 0.51 0.53 0.59
0.02 0.04 0.08 0.15 0.16 0.23 0.36 0.47 0.66 0.82 1.04 1.19 1.22 1.20 1.24 1.35 1.58 1.82 2.14 2.52 2.71 2.79 2.73 2.76 2.73 2.32 1.74 1.29 0.90 0.70 0.62 0.49 0.36 0.28 0.30 0.32 0.31 0.35 0.41 0.33 0.35 0.33 0.29 0.30 0.32 0.36 0.37 0.35 0.34
0.03 0.06 0.11 0.14 0.14 0.19 0.34 0.61 0.76 0.84 0.86 0.93 1.03 0.99 0.97 1.05 1.14 1.25 1.43 1.72 1.77 1.88 1.98 1.95 1.95 1.67 1.22 0.99 0.76 0.66 0.58 0.44 0.32 0.25 0.24 0.21 0.20 0.23 0.29 0.36 0.28 0.29 0.29 0.29 0.28 0.32 0.30 0.27 0.28
0.04 0.05 0.06 0.10 0.11 0.19 0.35 0.85 0.93 0.82 0.73 0.64 0.75 0.78 0.73 0.74 0.74 0.75 0.84 1.02 1.27 1.64 1.66 1.46 1.42 1.30 1.05 0.90 0.75 0.68 0.61 0.48 0.36 0.29 0.22 0.19 0.16 0.17 0.20 0.25 0.27 0.30 0.26 0.30 0.35 0.32 0.31 0.24 0.22
0.04 0.03 0.02 0.02 0.07 0.30 0.42 0.86 0.95 0.81 0.80 0.61 0.57 0.55 0.45 0.37 0.41 0.51 0.57 0.67 0.87 1.11 1.26 1.28 1.24 1.20 0.98 0.80 0.65 0.54 0.45 0.35 0.27 0.25 0.21 0.18 0.16 0.15 0.13 0.13 0.18 0.25 0.27 0.35 0.27 0.30 0.32 0.29 0.22
0.01 0.01 0.01 0.03 0.10 0.27 0.40 0.73 0.94 0.76 0.84 0.59 0.37 0.25 0.18 0.15 0.19 0.32 0.40 0.50 0.59 0.70 0.89 1.07 1.23 1.32 1.04 0.80 0.64 0.56 0.49 0.38 0.30 0.26 0.26 0.21 0.21 0.19 0.17 0.16 0.15 0.15 0.20 0.27 0.30 0.36 0.33 0.34 0.30
0.01 0.02 0.08 0.17 0.29 0.61 0.60 0.59 0.88 0.66 0.44 0.27 0.18 0.11 0.09 0.09 0.12 0.20 0.26 0.35 0.47 0.55 0.63 0.76 0.96 1.15 1.05 0.84 0.67 0.61 0.57 0.49 0.39 0.30 0.26 0.26 0.28 0.29 0.27 0.24 0.23 0.23 0.20 0.18 0.20 0.25 0.31 0.37 0.38
0.02 0.03 0.16 0.37 0.63 0.82 0.49 0.62 0.96 0.52 0.31 0.18 0.12 0.08 0.06 0.06 0.07 0.11 0.16 0.20 0.32 0.39 0.40 0.45 0.65 0.80 0.80 0.71 0.62 0.60 0.66 0.64 0.56 0.45 0.36 0.32 0.30 0.31 0.31 0.29 0.28 0.30 0.29 0.26 0.21 0.18 0.22 0.30 0.35
0.02 0.02 0.06 0.12 0.24 0.40 0.47 1.07 0.89 0.32 0.19 0.15 0.11 0.09 0.07 0.06 0.05 0.05 0.08 0.13 0.20 0.25 0.30 0.34 0.46 0.57 0.61 0.55 0.53 0.52 0.51 0.47 0.51 0.54 0.45 0.40 0.38 0.34 0.30 0.29 0.27 0.29 0.32 0.33 0.30 0.24 0.22 0.24 0.28
0.02 0.02 0.03 0.04 0.06 0.24 0.57 0.76 0.46 0.18 0.15 0.15 0.12 0.09 0.08 0.09 0.07 0.04 0.04 0.09 0.12 0.16 0.21 0.23 0.33 0.42 0.45 0.45 0.43 0.41 0.41 0.36 0.37 0.35 0.31 0.30 0.39 0.39 0.35 0.30 0.28 0.29 0.31 0.34 0.35 0.33 0.32 0.29 0.26
0.03 0.02 0.02 0.02 0.05 0.17 0.42 0.65 0.64 0.34 0.24 0.21 0.16 0.10 0.07 0.07 0.06 0.05 0.06 0.08 0.09 0.14 0.19 0.22 0.28 0.35 0.38 0.39 0.36 0.34 0.41 0.40 0.42 0.35 0.29 0.25 0.27 0.29 0.32 0.33 0.30 0.28 0.30 0.34 0.38 0.41 0.46 0.47 0.42
0.04 0.03 0.03 0.03 0.04 0.09 0.27 0.40 0.41 0.30 0.26 0.19 0.15 0.12 0.11 0.08 0.05 0.06 0.08 0.07 0.07 0.11 0.16 0.17 0.25 0.32 0.34 0.38 0.37 0.39 0.38 0.36 0.38 0.39 0.36 0.31 0.28 0.27 0.27 0.28 0.27 0.25 0.25 0.28 0.33 0.36 0.47 0.59 0.67
0.05 0.06 0.06 0.05 0.05 0.06 0.11 0.19 0.19 0.20 0.23 0.22 0.19 0.17 0.14 0.10 0.07 0.07 0.07 0.06 0.05 0.10 0.14 0.15 0.19 0.23 0.24 0.32 0.40 0.39 0.40 0.45 0.42 0.37 0.39 0.38 0.38 0.38 0.37 0.33 0.31 0.27 0.23 0.26 0.28 0.30 0.35 0.49 0.65